User: anonymous   Login
Location: Ash Swamp
(41.5170°N, 74.6157°W)
Time: 08:27:13
(UTC+00:00)
Language:

Cosmos 1975 Rocket - Orbit

View from above orbital plane
View from above orbital plane
View from above satellite
View from above satellite

Ground track
Ground track

The orbit data is extracted from the following two-line orbital elements,

1 19574U 88093B   20265.81283072  .00000039  00000-0  17502-5 0  9992
2 19574  82.5294 109.9510 0022541 141.1187 230.1405 14.83337444726247
Epoch (UTC): 21 September 2020 19:30:28
Eccentricity: 0.0022541
inclination: 82.5294°
perigee height: 603 km
apogee height: 634 km
right ascension of ascending node: 109.9510°
argument of perigee: 141.1187°
revolutions per day: 14.83337444
mean anomaly at epoch: 230.1405°
orbit number at epoch: 72624

The dashed part of the orbit path shows where the satellite is in the earth's shadow,  

DLR